Location: Colonia Mina de C?rbuni
(46.1667°N, 22.7167°E)
Time: 23:39:37
(UTC+00:00)

Vanguard 3 - All Passes

Search period start: 16 April 2024 00:00
Search period end: 26 April 2024 00:00
Orbit: 510 x 3235 km, 33.3° (Epoch: 16 April)

Date Brightness Start Highest point End Pass type
(mag) Time Alt. Az. Time Alt. Az. Time Alt. Az.
16 Apr - 01:59:06 10° S 02:04:55 15° SSE 02:09:34 10° SE visible
16 Apr - 04:09:21 10° SW 04:16:49 24° S 04:21:50 10° ESE daylight
16 Apr - 06:22:33 10° WSW 06:27:45 22° SSW 06:31:29 10° SE daylight
17 Apr - 00:45:37 10° SSE 00:46:54 10° SSE 00:48:09 10° SE visible
17 Apr - 02:50:47 10° SSW 02:59:15 22° SSE 03:05:07 10° ESE visible
17 Apr - 05:03:33 10° SW 05:10:49 27° S 05:15:35 10° SE daylight
17 Apr - 07:17:34 10° WSW 07:21:17 17° SSW 07:24:12 10° SSE daylight
18 Apr - 01:32:53 10° SSW 01:41:19 19° SSE 01:47:36 10° ESE visible
18 Apr - 03:44:21 10° SW 03:53:28 29° S 03:59:19 10° ESE daylight
18 Apr - 05:58:16 10° WSW 06:04:34 25° SSW 06:08:52 10° SE daylight
19 Apr - 00:16:43 10° S 00:23:05 14° SSE 00:28:25 10° SE visible
19 Apr - 02:25:18 10° SW 02:35:41 27° SSE 02:42:36 10° ESE visible
19 Apr - 04:38:49 10° WSW 04:47:30 31° S 04:52:57 10° ESE daylight
19 Apr - 06:53:28 10° WSW 06:58:03 19° SSW 07:01:29 10° SSE daylight
20 Apr - 01:06:51 10° SSW 01:17:31 23° SSE 01:25:09 10° ESE visible
20 Apr - 03:19:12 10° SW 03:29:56 33° S 03:36:38 10° ESE daylight
20 Apr - 05:33:46 10° WSW 05:41:15 28° SSW 05:46:08 10° SE daylight
20 Apr - 23:49:50 10° S 23:59:03 17° SSE 00:06:25 10° ESE visible
21 Apr - 01:59:44 10° SW 02:11:55 31° SSE 02:19:51 10° ESE visible
21 Apr - 04:13:54 10° WSW 04:24:00 35° S 04:30:12 10° ESE daylight
21 Apr - 06:29:08 10° WSW 06:34:42 20° SSW 06:38:42 10° SSE daylight
21 Apr - 22:37:06 10° SSE 22:40:27 11° SE 22:43:36 10° SE visible
22 Apr - 00:40:55 10° SSW 00:53:29 27° SSE 01:02:23 10° ESE visible
22 Apr - 02:53:54 10° SW 03:06:13 37° S 03:13:47 10° ESE visible
22 Apr - 05:09:02 10° WSW 05:17:48 31° SSW 05:23:19 10° SE daylight
22 Apr - 07:26:10 10° SW 07:27:45 11° SW 07:29:12 10° SSW daylight
22 Apr - 23:23:24 10° S 23:34:47 21° SSE 23:43:47 10° ESE visible
23 Apr - 01:34:08 10° SW 01:47:56 35° SSE 01:56:54 10° ESE visible
23 Apr - 03:48:47 10° WSW 04:00:21 38° S 04:07:18 10° ESE daylight
23 Apr - 06:04:34 10° WSW 06:11:12 22° SSW 06:15:49 10° SSE daylight
23 Apr - 22:08:41 10° SSE 22:16:02 14° SE 22:22:36 10° ESE visible
24 Apr - 00:15:02 10° SSW 00:29:14 30° SSE 00:39:20 10° ESE visible
24 Apr - 02:28:29 10° WSW 02:42:18 41° S 02:50:47 10° ESE visible
24 Apr - 04:44:05 10° WSW 04:54:09 33° SSW 05:00:23 10° SE daylight
24 Apr - 07:01:28 10° WSW 07:04:11 12° SW 07:06:31 10° SSW daylight
24 Apr - 22:57:14 10° SSW 23:10:19 24° SSE 23:20:44 10° ESE visible
25 Apr - 01:08:29 10° SW 01:23:44 39° SSE 01:33:46 10° ESE visible
25 Apr - 03:23:31 10° WSW 03:36:29 41° S 03:44:17 10° ESE daylight
25 Apr - 05:39:46 10° WSW 05:47:33 24° SSW 05:52:48 10° SSE daylight
25 Apr - 21:41:45 10° S 21:51:24 16° SE 22:00:03 10° ESE visible
